Weather History for KBVU - April, 2014

Change the Weather History Date:

Wednesday, April 2, 2014

  Actual Average (KLAS) Record (KLAS)
Temperature  
Mean Temperature 52 °F 63 °F  
Max Temperature 59 °F 74 °F 95 °F (1966)
Min Temperature 44 °F 52 °F 31 °F (1975)
Degree Days  
Heating Degree Days 14 4  
Month to date heating degree days 8  
Since 1 July heating degree days 1888  
Cooling Degree Days 0 2  
Month to date cooling degree days 4  
Year to date cooling degree days 35  
Growing Degree Days 2 (Base 50)    
Moisture  
Dew Point 28 °F    
Average Humidity 42    
Maximum Humidity 71    
Minimum Humidity 25    
Precipitation  
Precipitation 0.00 in 0.01 in 0.63 in (2004)
Month to date precipitation 0.02  
Year to date precipitation 1.76  
Snow  
Snow 0.00 in 0.00 in 0.00 in (2014)
Month to date snowfall 0.0  
Since 1 July snowfall 0.3  
Snow Depth -    
Sea Level Pressure  
Sea Level Pressure 29.85 in    
Wind  
Wind Speed 11 mph (WSW)    
Max Wind Speed 20 mph    
Max Gust Speed 25 mph    
Visibility 10 miles    
Events Thunderstorm    
T = Trace of Precipitation, MM = Missing Value Source: NWS Daily Summary

Daily Weather History Graph

Daily Weather History Graph

Search for Another Location

Airport or City:

Trip Planner

Search our weather history database for the weather conditions in past years. The results will help you decide how hot, cold, wet, or windy it might be!

Date:

Astronomy

Apr. 02, 2014 Rise Set
Actual Time 6:24 AM PDT 7:02 PM PDT
Civil Twilight 5:58 AM PDT 7:28 PM PDT
Nautical Twilight 5:28 AM PDT 7:58 PM PDT
Astronomical Twilight 4:56 AM PDT 8:29 PM PDT
Moon 8:16 AM PDT (4/2) 10:23 PM PDT (4/2)
Length of Visible Light 13h 29m
Length of Day
12h 37m
Waxing Crescent, 11% of the Moon is Illuminated
Apr 2
Waxing Crescent
Apr 7
First Quarter
Apr 15
Full
Apr 22
Last Quarter
Apr 28
New

Hourly Weather History & Observations

Time (PDT) Temp. Windchill Dew Point Humidity Pressure Visibility Wind Dir Wind Speed Gust Speed Precip Events Conditions
12:15 AM 51.8 °F - 24.8 °F 35% 29.78 in 10.0 mi SSW 12.7 mph - N/A   Clear
12:35 AM 51.8 °F - 26.6 °F 38% 29.79 in 10.0 mi SSW 9.2 mph 16.1 mph N/A   Clear
12:55 AM 51.8 °F - 26.6 °F 38% 29.79 in 10.0 mi SW 10.4 mph - N/A   Clear
1:15 AM 50.0 °F - 26.6 °F 40% 29.79 in 10.0 mi SW 9.2 mph - N/A   Clear
1:35 AM 50.0 °F - 26.6 °F 40% 29.79 in 10.0 mi West 9.2 mph - N/A   Clear
1:55 AM 50.0 °F - 26.6 °F 40% 29.78 in 10.0 mi WSW 10.4 mph - N/A Thunderstorm Clear
2:15 AM 50.0 °F - 26.6 °F 40% 29.77 in 10.0 mi WSW 12.7 mph - N/A   Clear
2:35 AM 50.0 °F - 26.6 °F 40% 29.78 in 10.0 mi SW 6.9 mph - N/A   Clear
2:55 AM 50.0 °F - 26.6 °F 40% 29.77 in 10.0 mi SSW 15.0 mph 20.7 mph N/A   Clear
3:15 AM 50.0 °F - 26.6 °F 40% 29.77 in 10.0 mi SSW 16.1 mph - N/A   Clear
3:35 AM 50.0 °F - 26.6 °F 40% 29.78 in 10.0 mi SW 16.1 mph 24.2 mph N/A Thunderstorm Clear
3:55 AM 50.0 °F - 26.6 °F 40% 29.78 in 10.0 mi WSW 8.1 mph - N/A   Clear
4:15 AM 48.2 °F - 26.6 °F 43% 29.78 in 10.0 mi SW 6.9 mph - N/A Thunderstorm Clear
5:55 AM 48.2 °F - 26.6 °F 43% 29.79 in 10.0 mi SSW 16.1 mph - N/A   Clear
6:15 AM 48.2 °F - 26.6 °F 43% 29.79 in 10.0 mi SW 9.2 mph - N/A   Clear
6:35 AM 48.2 °F - 26.6 °F 43% 29.80 in 10.0 mi SW 12.7 mph - N/A   Partly Cloudy
6:55 AM 48.2 °F - 26.6 °F 43% 29.81 in 10.0 mi SSW 9.2 mph 15.0 mph N/A   Scattered Clouds
7:15 AM 50.0 °F - 28.4 °F 43% 29.81 in 10.0 mi SSW 13.8 mph - N/A   Scattered Clouds
7:35 AM 50.0 °F - 28.4 °F 43% 29.81 in 10.0 mi SSW 15.0 mph 23.0 mph N/A   Mostly Cloudy
7:55 AM 50.0 °F - 28.4 °F 43% 29.82 in 10.0 mi SSW 16.1 mph - N/A   Partly Cloudy
8:15 AM 50.0 °F - 28.4 °F 43% 29.82 in 10.0 mi SW 13.8 mph 20.7 mph N/A   Partly Cloudy
8:35 AM 50.0 °F - 28.4 °F 43% 29.82 in 10.0 mi SW 13.8 mph - N/A   Clear
8:55 AM 51.8 °F - 28.4 °F 41% 29.83 in 10.0 mi SW 15.0 mph - N/A   Mostly Cloudy
9:15 AM 55.4 °F - 26.6 °F 33% 29.84 in 10.0 mi SW 16.1 mph - N/A   Overcast
9:35 AM 53.6 °F - 26.6 °F 35% 29.84 in 10.0 mi SW 16.1 mph - N/A   Mostly Cloudy
9:55 AM 55.4 °F - 26.6 °F 33% 29.85 in 10.0 mi SW 17.3 mph - N/A   Mostly Cloudy
10:15 AM 55.4 °F - 24.8 °F 31% 29.85 in - SW 17.3 mph - N/A   Mostly Cloudy
10:55 AM 57.2 °F - 24.8 °F 29% 29.85 in 10.0 mi WSW 16.1 mph 21.9 mph N/A   Partly Cloudy
11:15 AM 57.2 °F - 24.8 °F 29% 29.85 in 10.0 mi WSW 13.8 mph 20.7 mph N/A   Scattered Clouds
11:35 AM 57.2 °F - 24.8 °F 29% 29.85 in 10.0 mi SW 11.5 mph - N/A Thunderstorm Partly Cloudy
11:55 AM 57.2 °F - 24.8 °F 29% 29.84 in 10.0 mi SSW 10.4 mph 20.7 mph N/A   Clear
12:15 PM 59.0 °F - 24.8 °F 27% 29.84 in 10.0 mi West 11.5 mph 18.4 mph N/A   Scattered Clouds
12:35 PM 57.2 °F - 24.8 °F 29% 29.84 in 10.0 mi WSW 6.9 mph 16.1 mph N/A   Mostly Cloudy
12:55 PM 57.2 °F - 24.8 °F 29% 29.84 in 10.0 mi West 10.4 mph 16.1 mph N/A   Mostly Cloudy
1:15 PM 57.2 °F - 24.8 °F 29% 29.83 in 10.0 mi West 5.8 mph - N/A   Mostly Cloudy
1:35 PM 57.2 °F - 26.6 °F 31% 29.83 in 10.0 mi WNW 13.8 mph - N/A   Mostly Cloudy
1:55 PM 57.2 °F - 28.4 °F 33% 29.83 in 10.0 mi West 17.3 mph 23.0 mph N/A   Overcast
2:15 PM 57.2 °F - 24.8 °F 29% 29.83 in 10.0 mi WSW 12.7 mph - N/A   Mostly Cloudy
2:35 PM 59.0 °F - 24.8 °F 27% 29.83 in 10.0 mi West 10.4 mph 18.4 mph N/A   Scattered Clouds
2:55 PM 59.0 °F - 30.2 °F 34% 29.84 in 10.0 mi WSW 18.4 mph 25.3 mph N/A   Clear
3:15 PM 55.4 °F - 30.2 °F 38% 29.84 in 10.0 mi SSW 6.9 mph 16.1 mph N/A   Scattered Clouds
3:35 PM 57.2 °F - 26.6 °F 31% 29.84 in 10.0 mi West 12.7 mph - N/A   Scattered Clouds
3:55 PM 59.0 °F - 23.0 °F 25% 29.84 in 10.0 mi West 8.1 mph 17.3 mph N/A   Scattered Clouds
4:15 PM 57.2 °F - 24.8 °F 29% 29.84 in 10.0 mi SSW 11.5 mph 18.4 mph N/A   Partly Cloudy
4:35 PM 57.2 °F - 28.4 °F 33% 29.84 in 10.0 mi SW 11.5 mph 17.3 mph N/A   Mostly Cloudy
4:55 PM 57.2 °F - 28.4 °F 33% 29.86 in 10.0 mi West 10.4 mph - N/A Thunderstorm Overcast
5:15 PM 51.8 °F - 32.0 °F 47% 29.86 in 8.0 mi NNW 19.6 mph - N/A   Mostly Cloudy
5:35 PM 53.6 °F - 32.0 °F 44% 29.87 in 10.0 mi North 11.5 mph 21.9 mph N/A   Mostly Cloudy
5:55 PM 53.6 °F - 32.0 °F 44% 29.88 in 10.0 mi North 11.5 mph - N/A   Clear
6:15 PM 53.6 °F - 32.0 °F 44% 29.88 in 10.0 mi NNE 5.8 mph - N/A   Clear
6:35 PM 51.8 °F - 32.0 °F 47% 29.88 in 10.0 mi NE 4.6 mph - N/A   Clear
6:55 PM 51.8 °F - 32.0 °F 47% 29.89 in 10.0 mi NNE 4.6 mph - N/A   Clear
7:15 PM 50.0 °F - 33.8 °F 54% 29.89 in 10.0 mi Calm Calm - N/A   Clear
7:35 PM 50.0 °F - 33.8 °F 54% 29.89 in 10.0 mi ENE 3.5 mph - N/A   Clear
7:55 PM 50.0 °F - 32.0 °F 50% 29.90 in 10.0 mi East 3.5 mph - N/A   Clear
8:15 PM 48.2 °F - 32.0 °F 54% 29.91 in 10.0 mi Calm Calm - N/A   Clear
8:35 PM 46.4 °F - 33.8 °F 62% 29.92 in 10.0 mi Calm Calm - N/A   Clear
9:15 PM 46.4 °F - 32.0 °F 57% 29.94 in - Calm Calm - N/A   Partly Cloudy
9:35 PM 46.4 °F 45.2 °F 33.8 °F 62% 29.94 in 10.0 mi NNE 3.5 mph - N/A   Clear
9:55 PM 44.6 °F 42.2 °F 35.6 °F 71% 29.94 in 10.0 mi NNE 4.6 mph - N/A   Scattered Clouds
10:15 PM 46.4 °F 42.9 °F 33.8 °F 62% 29.95 in 10.0 mi ENE 6.9 mph - N/A   Partly Cloudy
10:35 PM 46.4 °F 42.9 °F 32.0 °F 57% 29.95 in 10.0 mi ENE 6.9 mph - N/A   Clear
10:55 PM 44.6 °F 41.4 °F 33.8 °F 66% 29.96 in 10.0 mi NE 5.8 mph - N/A   Clear
11:15 PM 44.6 °F 41.4 °F 33.8 °F 66% 29.96 in 10.0 mi NE 5.8 mph - N/A   Clear
11:35 PM 44.6 °F 41.4 °F 33.8 °F 66% 29.96 in 10.0 mi ENE 5.8 mph - N/A   Clear
11:55 PM 44.6 °F 41.4 °F 32.0 °F 61% 29.97 in 10.0 mi NE 5.8 mph - N/A   Clear